View from above orbital plane
|
View from above satellite
|
Ground track
|
The orbit data is extracted from the following two-line orbital elements,
1 19826U 89017A 21023.80895845 .00000014 00000-0 -10361-5 0 9998
2 19826 82.9533 294.5725 0029561 326.1340 91.2410 13.72301584598445
Epoch (UTC): | 23 January 2021 19:24:54 |
Eccentricity: | 0.0029561 |
inclination: | 82.9533° |
perigee height: | 969 km |
apogee height: | 1013 km |
right ascension of ascending node: | 294.5725° |
argument of perigee: | 326.1340° |
revolutions per day: | 13.72301584 |
mean anomaly at epoch: | 91.2410° |
orbit number at epoch: | 59844 |
The dashed part of the orbit path shows where the satellite is in the earth's shadow,
|
|